Location: Unspecified
(0.0000°N, 0.0000°E)
Time: 17:21:11
(UTC+00:00)

ISS - Pass Details

Date: 20 January 2020
Orbit: 415 x 422 km, 51.6° (Epoch: 23 January)

Event Time Altitude Azimuth Distance (km) Brightness Sun altitude
Exits shadow 04:03:51 16° 113° (ESE) 1,156 -0.8 -29.6°
Drops below altitude 10° 04:04:46 10° 121° (ESE) 1,482 -0.1 -29.4°
Sets 04:06:58 0° 131° (SE) 2,348 1.1 -28.9°
